User: anonymous   Login
Location: Unspecified
(0.0000°N, 0.0000°E)
Time: 08:58:43
(UTC+00:00)
Language:

STARLINK-30992 - Orbit

View from above orbital plane
View from above orbital plane
View from above satellite
View from above satellite

Ground track
Ground track

The orbit is defined by the following mean orbital elements,

1 58524U          26145.38726382 +.00000000 +00000-0 -84511-5 0 00009
2 58524  43.0040  30.0788 0001353 275.4625  84.6072 15.27581027    01
Epoch (UTC): 25 May 2026 09:17:39
Eccentricity: 0.0001353
inclination: 43.0040°
perigee height: 482 km
apogee height: 484 km
right ascension of ascending node: 30.0788°
argument of perigee: 275.4625°
revolutions per day: 15.27581027
mean anomaly at epoch: 84.6072°

The dashed part of the orbit path shows where the satellite is in the earth's shadow,  

DLR